Location: Kawakawa
(35.3830°S, 174.0670°E)
Time: 18:39:07
(UTC+12:00)

Lacrosse 4 Rocket - Pass Details

Date: 15 August 2020
Orbit: 544 x 615 km, 68.0° (Epoch: 25 September)

Event Time Altitude Azimuth Distance (km) Brightness Sun altitude
Rises 20:16:18 0° 213° (SSW) 2,913 5.5 -29.9°
Reaches altitude 10° 20:18:40 10° 219° (SW) 2,002 4.6 -30.4°
Enters shadow 20:21:41 34° 249° (WSW) 1,025 3.1 -31.0°
